Regional Weather Roundup
Issued by NWS Lake Charles, LA

Home | Current Version | Previous Version | Text Only | Print | Product List | Glossary On
Versions: 1 2 3 4 5 6 7 8 9 10 11 12 13 14 15 16 17 18 19 20 21 22 23 24 25 26 27
000
ASUS44 KLCH 262110
RWRLCH
REGIONAL WEATHER ROUNDUP
NATIONAL WEATHER SERVICE LAKE CHARLES LA
400 PM CDT THU APR 26 2018

Note: "fair" indicates few or no clouds below 12,000 feet with no
significant weather and/or obstructions to visibility.


ACROSS SOUTHEAST TEXAS

CITY           SKY/WX    TMP DP  RH WIND       PRES   REMARKS
BEAUMONT       FAIR      76  48  37 NW10      29.91F
BEAUMONT CITY  FAIR      76  47  35 N9        29.93F
ORANGE         FAIR      74  51  44 NW6       29.93F
JASPER         FAIR      73  48  41 NW8       29.96S
$$

ACROSS CENTRAL LOUISIANA

CITY           SKY/WX    TMP DP  RH WIND       PRES   REMARKS
LEESVILLE      FAIR      71  49  44 W9        29.91F
FULLERTON      FAIR      73  50  44 VRB5      29.89F
ALEXANDRIA INT FAIR      67  49  52 NW8       29.93S
ESLER FIELD    LGT RAIN  66  51  58 N12       29.94S
DERIDDER       FAIR      71  45  38 N10G16    29.94F
OAKDALE        FAIR      73  50  45 N7        29.91F
OPELOUSAS      FAIR      71  50  48 N10       29.92F
$$

ACROSS SOUTHWEST AND SOUTH CENTRAL LOUISIANA

CITY           SKY/WX    TMP DP  RH WIND       PRES   REMARKS
SULPHUR        FAIR      76  47  36 W3        29.93S
LAKE CHARLES   FAIR      76  47  35 NW8       29.91F
CHENNAULT INT  SUNNY     75  50  41 NW10      29.92F
CAMERON PHI    CLEAR     73  48  40 CALM      29.92F
DEQUINCY       FAIR      73  48  42 NW8       29.92F
JENNINGS       FAIR      71  50  47 N8        29.92F
LAFAYETTE      FAIR      72  51  47 NW8       29.91F
NEW IBERIA     FAIR      73  48  41 NW8       29.91F
ABBEVILLE      FAIR      72  52  48 NW10      29.91F
PATTERSON      FAIR      72  53  51 N9        29.90F
SALT POINT       N/A    N/A N/A N/A W8        29.89F
$$

SELECTED SITES ACROSS THE REGION

CITY           SKY/WX    TMP DP  RH WIND       PRES   REMARKS
HOUSTON BUSH   FAIR      76  49  38 N8        29.94F
HOUSTON HOBBY  FAIR      75  44  33 VRB7      29.93F
GALVESTON      FAIR      72  50  45 E5        29.95F
COLLEGE STAT   FAIR      74  49  41 SW10      29.95F
CONROE         FAIR      74  49  41 VRB7      29.94F
HUNTSVILLE     FAIR      74  49  41 MISG      29.95F
LUFKIN         FAIR      72  49  44 VRB5      29.94F
SHREVEPORT     PTSUNNY   67  49  52 VRB5      29.95F
MONROE         CLOUDY    65  52  62 NW9       29.94F
NATCHEZ MS     CLOUDY    62  51  67 N5        29.95F
BATON ROUGE    FAIR      69  50  50 W8        29.91F
N.O. INTL ARPT FAIR      73  55  53 N12       29.87F
SLIDELL        FAIR      73  50  44 NW9       29.87F
$$

MARINE REPORTS

STATION/POSITION TIME  SKY/WX   TEMP    WIND        PRES    VSBY
                                AIR SEA DIR/SP/G
                 (UTC)          (F)     (DEG/KT/KT) (MB)    (MI)
BUOY 30 S HIGH I NOT AVBL
SEA RIM ST PARK  2100            74     330/  8/ 12 1013.6F
PORT ARTHUR      2048            71 69  360/  5/ 12 1013.4F
SABINE PASS N    2042            71 73  310/  5/  9 1015.0F
TEXAS POINT      NOT AVBL
CALCASIEU PASS   2048            71 71  210/  3/ 11 1012.3F
LK CHARLES BEACH 2048            73 73              1012.5F
MARSH ISLAND     2000            68                   N/A
FRESH WATER LOCK 2048            70 73              1013.0F
AMERADA PASS     NOT AVBL
$$




USA.gov is the U.S. government's official web portal to all federal, state and local government web resources and services.